Torna al catalogo

COSMOS 1275 DEB

AttivoPO
NORAD 12704·DEBRIS·🇷🇺 Russia

Lanciato Jun 4, 1981 da Plesetsk Cosmodrome

Loading…

Prossimi Passaggi (prossime 24 ore)

TLE

AggiornatoSource: Space-Track

Epoca: Sep 14, 2026, 10:27 UTC

1 12704U 81053AY  26257.43583359  .00000300  00000-0  30967-3 0  9994
2 12704  82.9860  64.4803 0084542  95.3336 294.5365 13.71226277249452

Traccia COSMOS 1275 DEB in tempo reale con AllMySat

Download on the App Store